Tracking 29059 objects as of 19-Jun-2024
HD Live streaming from Space Station
objects crossing your sky now

STARLINK-1336

Track STARLINK-1336 now!
10-day predictions
STARLINK-1336 is classified as:


NORAD ID: 45557
Int'l Code: 2020-025AC
Perigee: 553.1 km
Apogee: 555.6 km
Inclination: 53.1 °
Period: 95.6 minutes
Semi major axis: 6925 km
RCS: Unknown
Launch date: April 22, 2020
Source: United States (US)
Launch site: AIR FORCE EASTERN TEST RANGE (AFETR)
Your satellite tracking list
Your tracking list is empty




NASA's NSSDC Master Catalog

Two Line Element Set (TLE):
1 45557U 20025AC  24170.88187670  .00001629  00000-0  12829-3 0  9997
2 45557  53.0559  29.4419 0001782 101.6187 258.5002 15.06392155229996
Source of the keplerian elements: AFSPC